CW6338 Weather Reports


Display with metric or nautical units.
time (UTC)temp
F
wind
direction
speed
MPH
gust
MPH
rain 1hr
in
rain 24hr
in
rain mn
in
humidity
%
barometer
mb
20260510104816 47 293 2.0 3.0 0.00 0.00 0.00 62 1018.6
20260510103816 47 293 3.0 3.0 0.00 0.00 0.00 62 1018.5
20260510102816 47 293 2.0 3.0 0.00 0.00 0.00 62 1018.3
20260510101816 47 293 3.0 3.0 0.00 0.00 0.00 62 1018.1
20260510100816 47 293 2.0 3.0 0.00 0.00 0.00 61 1018.1
20260510095836 47 293 3.0 4.0 0.00 0.00 0.00 61 1018.0
20260510094816 48 293 2.0 3.0 0.00 0.00 0.00 62 1017.7
20260510093816 48 315 3.0 5.0 0.00 0.00 0.00 61 1017.5
20260510092816 48 293 2.0 3.0 0.00 0.00 0.00 61 1017.6
20260510091816 48 293 1.0 2.0 0.00 0.00 0.00 60 1017.5
20260510090816 49 293 2.0 3.0 0.00 0.00 0.00 59 1017.2
20260510085816 49 315 3.0 5.0 0.00 0.00 0.00 59 1017.0
20260510084816 49 315 2.0 2.0 0.00 0.00 0.00 58 1017.1
20260510083816 49 293 2.0 3.0 0.00 0.00 0.00 57 1016.9
20260510082816 50 315 2.0 3.0 0.00 0.00 0.00 56 1016.7
20260510081816 50 315 2.0 3.0 0.00 0.00 0.00 55 1016.6
20260510080815 51 315 2.0 3.0 0.00 0.00 0.00 55 1016.5
20260510075835 51 315 2.0 3.0 0.00 0.00 0.00 54 1016.2
20260510074815 52 315 2.0 2.0 0.00 0.00 0.00 52 1016.3
20260510073816 52 315 1.0 2.0 0.00 0.00 0.00 52 1016.4
20260510072815 53 315 2.0 3.0 0.00 0.00 0.00 51 1016.3
20260510071816 53 315 2.0 2.0 0.00 0.00 0.00 50 1016.2
20260510070815 54 315 1.0 2.0 0.00 0.00 0.00 48 1016.1
20260510065815 54 0.0 0.0 0.00 0.00 0.00 46 1016.3
20260510064815 55 0.0 0.0 0.00 0.00 0.00 47 1016.3
20260510063835 55 315 2.0 3.0 0.00 0.00 0.00 46 1016.3
20260510062815 56 315 3.0 4.0 0.00 0.00 0.00 46 1016.1
20260510061815 56 315 2.0 3.0 0.00 0.00 0.00 45 1016.1
20260510060815 56 315 2.0 3.0 0.00 0.00 0.00 44 1015.9
20260510055815 57 315 2.0 4.0 0.00 0.00 0.00 44 1015.7
20260510054815 57 315 3.0 4.0 0.00 0.00 0.00 44 1015.3
20260510053817 57 293 4.0 5.0 0.00 0.00 0.00 44 1015.1
20260510052817 58 293 4.0 5.0 0.00 0.00 0.00 43 1014.8
20260510051837 59 315 4.0 8.0 0.00 0.00 0.00 42 1014.6
20260510050817 60 315 5.0 7.0 0.00 0.00 0.00 42 1014.5
20260510045817 60 315 4.0 6.0 0.00 0.00 0.00 40 1014.3
20260510044817 61 315 5.0 8.0 0.00 0.00 0.00 39 1014.4
20260510043817 62 315 4.0 6.0 0.00 0.00 0.00 40 1014.3
20260510042817 62 315 4.0 8.0 0.00 0.00 0.00 41 1014.2
20260510041837 63 315 3.0 5.0 0.00 0.00 0.00 43 1014.1
20260510040817 63 315 4.0 8.0 0.00 0.00 0.00 44 1014.0
20260510035837 63 315 4.0 9.0 0.00 0.00 0.00 46 1013.9
20260510034817 63 315 4.0 6.0 0.00 0.00 0.00 47 1013.8
20260510033818 63 315 3.0 4.0 0.00 0.00 0.00 48 1013.6
20260510032817 64 315 3.0 4.0 0.00 0.00 0.00 48 1013.5
20260510031817 64 293 3.0 3.0 0.00 0.00 0.00 47 1013.2
20260510030817 64 315 5.0 7.0 0.00 0.00 0.00 48 1012.9
20260510025817 64 315 3.0 5.0 0.00 0.00 0.00 48 1012.7
20260510024817 64 315 3.0 6.0 0.00 0.00 0.00 48 1012.4
20260510023817 64 293 5.0 8.0 0.00 0.00 0.00 48 1012.2
20260510022817 64 293 4.0 4.0 0.00 0.00 0.00 49 1012.1
20260510021817 64 293 4.0 7.0 0.00 0.00 0.00 48 1011.9
20260510020817 64 293 3.0 4.0 0.00 0.00 0.00 48 1011.6
20260510015818 65 293 2.0 3.0 0.00 0.00 0.00 48 1011.5
20260510014817 65 293 1.0 1.0 0.00 0.00 0.00 48 1011.1
20260510013817 65 270 1.0 2.0 0.00 0.00 0.00 47 1010.9
20260510012836 65 270 3.0 4.0 0.00 0.00 0.00 46 1010.7
20260510011817 66 293 4.0 7.0 0.00 0.00 0.00 45 1010.4
20260510010837 66 315 4.0 5.0 0.00 0.00 0.00 44 1010.3
20260510005816 67 293 4.0 5.0 0.00 0.00 0.00 44 1010.1
20260510004817 67 315 6.0 10.0 0.00 0.00 0.00 43 1010.0
20260510003816 68 315 9.0 13.0 0.00 0.00 0.00 42 1009.8
20260510002816 68 293 11.0 13.0 0.00 0.00 0.00 41 1009.7
20260510001816 68 315 5.0 9.0 0.00 0.00 0.00 40 1009.5
20260510000816 68 293 9.0 14.0 0.00 0.00 0.00 40 1009.5
20260509235816 69 293 12.0 16.0 0.00 0.00 0.00 40 1009.5
20260509234836 70 315 10.0 13.0 0.00 0.00 0.00 42 1009.3
20260509233816 70 315 11.0 17.0 0.00 0.00 0.00 43 1009.4
20260509232816 70 315 7.0 10.0 0.00 0.00 0.00 43 1009.2
20260509231816 71 315 8.0 14.0 0.00 0.00 0.00 41 1009.2
20260509230816 71 0 12.0 18.0 0.00 0.00 0.00 40 1008.9
20260509225816 73 315 11.0 16.0 0.00 0.00 0.00 38 1008.8
20260509224816 75 315 12.0 19.0 0.00 0.00 0.00 34 1008.6
20260509223816 76 338 10.0 14.0 0.00 0.00 0.00 32 1008.4
20260509222816 76 315 15.0 17.0 0.00 0.00 0.00 28 1008.2
20260509221816 77 315 9.0 14.0 0.00 0.00 0.00 28 1008.2
20260509220816 78 315 8.0 10.0 0.00 0.00 0.00 28 1008.1
20260509215816 78 293 9.0 12.0 0.00 0.00 0.00 26 1008.0
20260509214816 78 270 7.0 10.0 0.00 0.00 0.00 26 1008.0
20260509213816 77 293 11.0 15.0 0.00 0.00 0.00 26 1008.0
20260509212836 78 293 10.0 11.0 0.00 0.00 0.00 26 1008.1
20260509211816 78 293 10.0 14.0 0.00 0.00 0.00 26 1007.9
20260509210836 79 293 15.0 20.0 0.00 0.00 0.00 25 1008.1
20260509205817 79 293 13.0 20.0 0.00 0.00 0.00 25 1008.1
20260509204816 78 293 5.0 8.0 0.00 0.00 0.00 25 1008.0
20260509203816 79 293 10.0 14.0 0.00 0.00 0.00 25 1008.1
20260509202816 79 248 11.0 16.0 0.00 0.00 0.00 25 1008.0
20260509201816 78 270 5.0 8.0 0.00 0.00 0.00 26 1008.0
20260509200816 78 270 9.0 11.0 0.00 0.00 0.00 24 1008.2
20260509195816 78 293 6.0 9.0 0.00 0.00 0.00 27 1008.2
20260509194817 78 293 12.0 15.0 0.00 0.00 0.00 25 1008.2
20260509193816 78 293 12.0 18.0 0.00 0.00 0.00 25 1008.3
20260509192816 79 293 12.0 16.0 0.00 0.00 0.00 25 1008.3
20260509191816 78 270 5.0 8.0 0.00 0.00 0.00 26 1008.3
20260509190836 78 248 11.0 16.0 0.00 0.00 0.00 26 1008.3
20260509185816 78 315 16.0 21.0 0.00 0.00 0.00 25 1008.3
20260509184816 78 293 15.0 19.0 0.00 0.00 0.00 28 1008.3
20260509183817 77 293 10.0 13.0 0.00 0.00 0.00 29 1008.3
20260509182816 76 293 8.0 10.0 0.00 0.00 0.00 28 1008.4
20260509181815 76 270 8.0 13.0 0.00 0.00 0.00 31 1008.4
20260509180816 76 293 9.0 12.0 0.00 0.00 0.00 31 1008.4
20260509175816 76 293 13.0 20.0 0.00 0.00 0.00 32 1008.5
20260509174816 75 270 4.0 9.0 0.00 0.00 0.00 33 1008.5
20260509173815 75 270 7.0 10.0 0.00 0.00 0.00 35 1008.4
20260509172836 74 293 8.0 14.0 0.00 0.00 0.00 38 1008.4
20260509171816 74 270 8.0 10.0 0.00 0.00 0.00 43 1008.4
20260509170836 73 293 6.0 10.0 0.00 0.00 0.00 44 1008.3
20260509165815 72 270 9.0 13.0 0.00 0.00 0.00 45 1008.2
20260509164815 72 293 9.0 12.0 0.00 0.00 0.00 46 1008.2
20260509163815 71 225 6.0 10.0 0.00 0.00 0.00 49 1008.1
20260509162815 70 248 4.0 6.0 0.00 0.00 0.00 53 1008.2
20260509161835 69 225 2.0 4.0 0.00 0.00 0.00 55 1008.0
20260509160836 68 270 3.0 6.0 0.00 0.00 0.00 57 1008.0
20260509155816 68 225 2.0 7.0 0.00 0.00 0.00 59 1008.0
20260509154815 67 248 4.0 6.0 0.00 0.00 0.00 63 1007.9
20260509153836 67 293 4.0 6.0 0.00 0.00 0.00 65 1008.0
20260509152837 66 248 5.0 8.0 0.00 0.00 0.00 67 1007.9
20260509151819 65 270 3.0 6.0 0.00 0.00 0.00 66 1007.9
20260509150817 64 225 2.0 4.0 0.00 0.00 0.00 72 1007.8
20260509145817 64 248 4.0 7.0 0.00 0.00 0.00 72 1007.8
20260509144817 63 293 6.0 9.0 0.00 0.00 0.00 73 1007.8
20260509143817 62 248 4.0 9.0 0.00 0.00 0.00 77 1007.9
20260509142817 61 248 4.0 7.0 0.00 0.00 0.00 79 1007.8
20260509141817 60 270 3.0 4.0 0.00 0.00 0.00 80 1007.8
20260509140817 60 248 3.0 5.0 0.00 0.00 0.00 83 1007.8
20260509135817 59 293 4.0 7.0 0.00 0.00 0.00 85 1007.8
20260509134817 58 225 5.0 10.0 0.00 0.00 0.00 87 1007.8
20260509133817 58 248 6.0 10.0 0.00 0.00 0.00 89 1007.6
20260509132817 57 293 3.0 6.0 0.00 0.00 0.00 92 1007.8
20260509131857 56 248 4.0 7.0 0.00 0.00 0.00 93 1007.7
20260509130837 54 225 4.0 6.0 0.00 0.00 0.00 93 1007.6
20260509125817 53 203 2.0 5.0 0.00 0.00 0.00 93 1007.5
20260509124835 52 225 3.0 4.0 0.00 0.00 0.00 93 1007.5
20260509123917 52 225 5.0 8.0 0.00 0.00 0.00 93 1007.5
20260509122917 52 225 3.0 6.0 0.00 0.00 0.00 93 1007.3
20260509121917 51 248 4.0 8.0 0.00 0.00 0.00 93 1007.3
20260509120917 51 225 1.0 2.0 0.00 0.00 0.00 93 1007.2
20260509115917 51 180 2.0 2.0 0.00 0.00 0.00 93 1007.2
20260509114917 50 203 1.0 5.0 0.00 0.00 0.00 93 1007.1
20260509113918 50 225 2.0 4.0 0.00 0.00 0.00 93 1007.0
20260509112957 50 203 3.0 5.0 0.00 0.00 0.00 93 1006.8
20260509111917 50 225 5.0 12.0 0.00 0.00 0.00 93 1006.7
20260509110916 50 270 4.0 6.0 0.00 0.00 0.00 93 1006.7
20260509105917 50 180 4.0 8.0 0.00 0.00 0.00 93 1006.7